This is the latest recevied weather packets stored in our database for station/object VK3PBR-10. If no packets are shown the sender has not sent any weather packets the latest 10 day(s).
| Time | Temp. | Humidity | Pressure | Rain* | Wind** | Luminosity | Snow |
|---|---|---|---|---|---|---|---|
| 1788012146 | 14.44° C | 59% | 1036.5 hPa | - | - | - | - |
| 1788011246 | 13.89° C | 59% | 1036.5 hPa | - | - | - | - |
| 1788010346 | 13.89° C | 60% | 1036.4 hPa | - | - | - | - |
| 1788009446 | 13.89° C | 59% | 1036.5 hPa | - | - | - | - |
| 1788008545 | 13.89° C | 59% | 1036.5 hPa | - | - | - | - |
| 1788007645 | 13.89° C | 58% | 1036.6 hPa | - | - | - | - |
| 1788006745 | 14.44° C | 58% | 1036.7 hPa | - | - | - | - |
| 1788005845 | 14.44° C | 57% | 1036.8 hPa | - | - | - | - |
| 1788004945 | 14.44° C | 57% | 1036.8 hPa | - | - | - | - |
| 1788004044 | 13.89° C | 57% | 1036.7 hPa | - | - | - | - |
| 1788003144 | 13.89° C | 57% | 1036.7 hPa | - | - | - | - |
| 1788002244 | 13.33° C | 58% | 1036.7 hPa | - | - | - | - |
| 1788001344 | 12.22° C | 58% | 1036.6 hPa | - | - | - | - |
| 1788000444 | 10.56° C | 59% | 1036.6 hPa | - | - | - | - |
| 1787999544 | 10.56° C | 58% | 1036.5 hPa | - | - | - | - |
| 1787998643 | 10.56° C | 57% | 1036.3 hPa | - | - | - | - |
| 1787997742 | 11.11° C | 57% | 1036.3 hPa | - | - | - | - |
| 1787996841 | 11.11° C | 56% | 1036 hPa | - | - | - | - |
| 1787995940 | 11.67° C | 55% | 1036.1 hPa | - | - | - | - |
| 1787995039 | 11.67° C | 54% | 1036 hPa | - | - | - | - |
| 1787994139 | 12.22° C | 53% | 1036 hPa | - | - | - | - |
| 1787993238 | 12.78° C | 52% | 1035.9 hPa | - | - | - | - |
| 1787992338 | 12.78° C | 50% | 1035.9 hPa | - | - | - | - |
| 1787991437 | 13.89° C | 49% | 1035.7 hPa | - | - | - | - |
| 1787990536 | 14.44° C | 47% | 1035.7 hPa | - | - | - | - |
* Rain since midnight (hover to see other rain measurements)
** Current wind speed in m/s (hover to see current wind gust speed)